Change the Weather History Date:

Friday, August 29, 2014

  Actual Average Record
Temperature  
Mean Temperature 52 °F -  
Max Temperature 59 °F 57 °F 73 °F (1987)
Min Temperature 46 °F 46 °F 29 °F (1956)
Degree Days  
Heating Degree Days 12    
Growing Degree Days 2 (Base 50)    
Moisture  
Dew Point 46 °F    
Average Humidity 81    
Maximum Humidity 100    
Minimum Humidity 48    
Precipitation  
Precipitation 0.01 in - - ()
Sea Level Pressure  
Sea Level Pressure 29.73 in    
Wind  
Wind Speed 2 mph (NW)    
Max Wind Speed 9 mph    
Max Gust Speed -    
Visibility 10 miles    
Events      
Averages and records for this station are not official NWS values.
T = Trace of Precipitation, MM = Missing Value Source: NWS Daily Summary

Daily Weather History Graph

Daily Weather History Graph

Search for Another Location

Airport or City:

Trip Planner

Search our weather history database for the weather conditions in past years. The results will help you decide how hot, cold, wet, or windy it might be!

Date:

Astronomy

Aug. 29, 2014 Rise Set
Actual Time 7:25 AM AKDT 9:42 PM AKDT
Civil Twilight 6:40 AM AKDT 10:26 PM AKDT
Nautical Twilight 5:43 AM AKDT 11:23 PM AKDT
Astronomical Twilight 4:27 AM AKDT 12:37 AM AKDT
Moon 12:31 PM AKDT (8/29) 10:37 PM AKDT (8/29)
Length of Visible Light 15h 45m
Length of Day
14h 17m
Waxing Crescent, 16% of the Moon is Illuminated
Aug 29
Waxing Crescent
Sep 2
First Quarter
Sep 8
Full
Sep 15
Last Quarter
Sep 23
New

Hourly Weather History & Observations

Time (AKDT) Temp. Dew Point Humidity Pressure Visibility Wind Dir Wind Speed Gust Speed Precip Events Conditions
12:16 AM 51.8 °F 48.2 °F 88% 29.74 in 10.0 mi Calm Calm - N/A   Clear
12:36 AM 51.8 °F 48.2 °F 88% 29.74 in 10.0 mi Calm Calm - N/A   Clear
12:56 AM 51.8 °F 48.2 °F 88% 29.74 in 10.0 mi WSW 4.6 mph - N/A   Clear
1:16 AM 51.8 °F 48.2 °F 88% 29.74 in 10.0 mi WSW 3.5 mph - N/A   Clear
1:36 AM 51.8 °F 48.2 °F 88% 29.74 in 10.0 mi Calm Calm - N/A   Clear
1:56 AM 51.8 °F 48.2 °F 88% 29.74 in 10.0 mi WSW 3.5 mph - N/A   Partly Cloudy
2:16 AM 51.8 °F 48.2 °F 88% 29.74 in 10.0 mi Calm Calm - N/A   Partly Cloudy
2:36 AM 51.8 °F 48.2 °F 88% 29.74 in 10.0 mi Calm Calm - N/A   Clear
2:56 AM 50.0 °F 48.2 °F 94% 29.74 in 10.0 mi Calm Calm - N/A   Clear
3:16 AM 50.0 °F 48.2 °F 94% 29.74 in 10.0 mi Calm Calm - N/A   Clear
3:36 AM 50.0 °F 48.2 °F 94% 29.75 in 10.0 mi Calm Calm - N/A   Clear
3:56 AM 50.0 °F 48.2 °F 94% 29.74 in 10.0 mi Calm Calm - N/A   Scattered Clouds
4:16 AM 50.0 °F 48.2 °F 94% 29.74 in 10.0 mi SSW 3.5 mph - N/A   Scattered Clouds
4:36 AM 50.0 °F 48.2 °F 94% 29.75 in 10.0 mi SW 3.5 mph - N/A   Mostly Cloudy
4:56 AM 48.2 °F 48.2 °F 100% 29.75 in 10.0 mi Calm Calm - N/A   Mostly Cloudy
5:16 AM 48.2 °F 48.2 °F 100% 29.75 in 10.0 mi Calm Calm - N/A   Partly Cloudy
5:36 AM 48.2 °F 48.2 °F 100% 29.74 in 10.0 mi Calm Calm - N/A   Clear
5:56 AM 48.2 °F 48.2 °F 100% 29.74 in 10.0 mi Calm Calm - N/A   Clear
6:16 AM 48.2 °F 48.2 °F 100% 29.74 in 10.0 mi Calm Calm - N/A   Clear
6:36 AM 48.2 °F 46.4 °F 93% 29.74 in 10.0 mi Calm Calm - N/A   Clear
6:56 AM 46.4 °F 44.6 °F 93% 29.74 in 10.0 mi Calm Calm - N/A   Clear
7:16 AM 48.2 °F 48.2 °F 100% 29.74 in 9.0 mi Calm Calm - N/A   Clear
7:36 AM 48.2 °F 46.4 °F 93% 29.74 in 10.0 mi Calm Calm - N/A   Clear
7:45 AM 48.2 °F 46.4 °F 93% 29.73 in 10.0 mi Calm Calm - N/A   Scattered Clouds
8:45 AM 48.2 °F 46.4 °F 93% 29.74 in 15.0 mi West 5.8 mph - N/A   Scattered Clouds
9:55 AM 51.8 °F 48.2 °F 88% 29.73 in 30.0 mi West 3.5 mph - N/A   Scattered Clouds
10:55 AM 55.4 °F 44.6 °F 67% 29.73 in 30.0 mi WNW 6.9 mph - N/A   Scattered Clouds
11:55 AM 55.4 °F 42.8 °F 63% 29.73 in 30.0 mi NNW 8.1 mph - N/A   Mostly Cloudy
12:45 PM 55.4 °F 46.4 °F 72% 29.73 in 30.0 mi NE 8.1 mph - N/A   Mostly Cloudy
1:45 PM 57.2 °F 44.6 °F 63% 29.73 in 30.0 mi North 9.2 mph - N/A   Mostly Cloudy
2:45 PM 57.2 °F 42.8 °F 59% 29.72 in 30.0 mi ENE 6.9 mph - N/A   Mostly Cloudy
3:45 PM 57.2 °F 42.8 °F 59% 29.72 in 30.0 mi East 4.6 mph - N/A   Mostly Cloudy
4:45 PM 59.0 °F 39.2 °F 48% 29.72 in 30.0 mi SE 4.6 mph - N/A   Mostly Cloudy
5:45 PM 57.2 °F 39.2 °F 51% 29.72 in 30.0 mi Calm Calm - N/A   Mostly Cloudy
6:55 PM 59.0 °F 42.8 °F 55% 29.71 in 30.0 mi SE 6.9 mph - N/A   Scattered Clouds
7:45 PM 59.0 °F 42.8 °F 55% 29.70 in 30.0 mi SE 5.8 mph - N/A   Scattered Clouds
8:49 PM 55.4 °F 44.6 °F 67% 29.70 in 30.0 mi SSE 4.6 mph - N/A   Mostly Cloudy
9:30 PM 55.4 °F 44.6 °F 67% 29.70 in 30.0 mi Calm Calm - N/A   Mostly Cloudy
9:56 PM 53.6 °F 46.4 °F 77% 29.70 in 10.0 mi Calm Calm - N/A   Overcast
10:16 PM 53.6 °F 46.4 °F 77% 29.70 in 10.0 mi Calm Calm - N/A   Overcast
10:36 PM 53.6 °F 46.4 °F 77% 29.70 in 10.0 mi Calm Calm - N/A   Overcast
10:56 PM 53.6 °F 46.4 °F 77% 29.71 in 10.0 mi NNE 4.6 mph - N/A   Overcast
11:16 PM 53.6 °F 44.6 °F 72% 29.71 in 10.0 mi North 5.8 mph - N/A   Overcast
11:36 PM 53.6 °F 41.0 °F 62% 29.71 in 10.0 mi North 8.1 mph - N/A   Overcast
11:56 PM 51.8 °F 41.0 °F 67% 29.70 in 10.0 mi North 8.1 mph - N/A   Overcast